Regional Weather Roundup
Issued by NWS Grand Forks, ND

Home | Current Version | Previous Version | Text Only | Print | Product List | Glossary On
Versions: 1 2 3 4 5 6 7 8 9 10 11 12 13 14 15 16 17 18 19 20 21 22 23 24 25 26 27 28 29 30 31 32 33 34 35 36 37 38 39 40 41 42 43 44 45 46 47 48 49 50
000
ASUS43 KFGF 030431
RWRFGF
PRAIRIE TO PINES  WEATHER ROUNDUP
NATIONAL WEATHER SERVICE EASTERN NORTH DAKOTA/GRAND FORKS ND
1000 PM CST FRI DEC 02 2016

 **SATELLITE DATA USED TO AUGMENT SKY COVER AT AUTOMATED STATIONS**
 *****  WEATHER ACROSS EASTERN NORTH DAKOTA  *****

CITY           SKY/WX    TMP DP  RH WIND       PRES   REMARKS
GRAND FORKS    CLOUDY    31  20  63 SW6       30.25S
GRAND FRKS AFB CLOUDY    30  20  66 SW6       30.25S WCI  24
GRAND FRKS NWS   N/A     30 N/A N/A SW3         N/A
DEVILS LAKE    CLOUDY    25  19  80 S10       30.20F WCI  15
FARGO          CLOUDY    28  19  69 SW10      30.29S WCI  19
WAHPETON ARPT  CLOUDY    28  19  69 CALM      30.31S
$$

 ***** WEATHER ACROSS CENTRAL AND WESTERN NORTH DAKOTA  *****

CITY           SKY/WX    TMP DP  RH WIND       PRES   REMARKS
BISMARCK       CLOUDY    20  18  92 SE5       30.19F WCI  13
MINOT          CLOUDY    29  26  89 S9        30.11F WCI  20
JAMESTOWN      CLOUDY    22  18  85 S6        30.23F WCI  14
MINOT AFB      CLOUDY    29  26  88 S10       30.10F WCI  19
GARRISON         N/A     24  22  91 S8        30.13S WCI  15
WILLISTON      CLEAR     24  22  91 S3        30.05F
DICKINSON      CLEAR     18  16  92 S10       30.07F WCI   6
HETTINGER      CLEAR     19  18  95 SE3       30.13F
$$

 *****  OTHER AIRPORT OBSERVATIONS IN OUR AREA  *****

CITY           SKY/WX    TMP DP  RH WIND       PRES   REMARKS
WALHALLA         N/A     28  28 100 SW6       30.22S WCI  22
GRAFTON AIRPOR CLOUDY    30  25  80 S5        30.25F
VALLEY CITY AR CLOUDY    25  23  93 S9        30.26F WCI  15
CANDO          CLOUDY    25  21  86 S10G16    30.20F WCI  15
CAVALIER APRT    N/A     30  27  86 SW3       30.23S
GWINNER        CLOUDY    28  23  80 SW5       30.28S WCI  23
SHEYENNE NWR     N/A     26  18  72 W5        29.95S WCI  20
ROLLA          CLOUDY    23  23 100 S10       30.15F WCI  12
 ***** THE ABOVE OBSERVATIONS ARE NON NWS ARE NOT QUALITY
       CONTROLLED AND MAY MIS-REPORT RAIN FOR SNOW...
$$

  *****  WEATHER ACROSS NORTHERN MINNESOTA  *****

CITY           SKY/WX    TMP DP  RH WIND       PRES   REMARKS
FLAG ISLAND    CLOUDY    21  19  93 CALM      30.23F
WARROAD        CLOUDY    25  19  80 NW7       30.24S WCI  17
ROSEAU         CLOUDY    27  21  80 CALM      30.24S
HALLOCK        CLOUDY    28  27  93 E3        30.24R
THF RVR FALLS  NOT AVBL
BAUDETTE       CLOUDY    24  21  88 W3        30.24S
WASKISH        CLOUDY    27  21  80 CALM      30.24S
CROOKSTON      CLOUDY    28  21  74 SW3       30.27S
STEPHEN NDAWN    N/A     30  25  80 SW3         N/A
GREENBUSH NDAW   N/A     27  25  93 SE2         N/A
$$
  *****  WEATHER ACROSS CENTRAL AND WEST MINNESOTA  *****

CITY           SKY/WX    TMP DP  RH WIND       PRES   REMARKS
FOSSTON        CLOUDY    27  18  69 W3        30.25S
BEMIDJI        CLOUDY    24  20  83 CALM      30.24F
PARK RAPIDS    CLOUDY    25  17  72 NW7       30.25S WCI  17
ELBOW LAKE     CLOUDY    26  21  82 CALM      30.30S
WADENA         CLOUDY    25  19  80 CALM      30.27S
DETROIT LAKES  CLOUDY    28  21  74 CALM      30.27S
MOORHEAD       CLOUDY    27  19  74 W5        30.30S WCI  21
FERGUS FALLS   CLOUDY    27  19  74 W5        30.33S WCI  21
MORRIS MN      CLOUDY    27  21  80 NW9       30.29F WCI  17
STAPLES        CLOUDY    25  19  80 CALM      30.28R
$$
  *****  WEATHER ELSEWHERE ACROSS MINNESOTA  *****

CITY           SKY/WX    TMP DP  RH WIND       PRES   REMARKS
DULUTH         NOT AVBL
INTRNTL FALLS  NOT AVBL
ELY            CLOUDY    27  25  93 CALM      30.22S
CLOQUET        CLOUDY    27  23  86 W7        30.24R WCI  19
WHEATON        CLOUDY   N/A N/A N/A W3        30.33S
BRAINERD       CLOUDY    26  22  84 W5        30.27S WCI  20
HIBBING        CLOUDY    24  21  88 W6        30.23S WCI  17
ALEXANDRIA     CLOUDY    26  20  77 CALM      30.29R
SAINT CLOUD    CLOUDY    28  23  81 CALM      30.28S
MINNEAPOLIS    CLOUDY    31  23  72 SW6       30.30S
$$

  *****  WEATHER ACROSS SOUTH DAKOTA  *****

CITY           SKY/WX    TMP DP  RH WIND       PRES   REMARKS
SIOUX FALLS    CLOUDY    30  24  78 CALM      30.30S
BROOKINGS      CLOUDY    25  20  81 N5        30.28S WCI  19
WATERTOWN      CLOUDY    25  19  78 W6        30.27R WCI  18
HURON          CLOUDY    29  26  89 SE5       30.30S WCI  24
SISSETON         N/A     27  19  72 N3        30.29F
ABERDEEN       MOCLDY    22  17  81 CALM      30.28F
MITCHELL       CLOUDY    31  27  85 NE3       30.31S
PIERRE         FOG       17  16  95 SE3       30.23F VSB 3/4
MOBRIDGE       CLOUDY    30  26  85 SE6       30.19F WCI  24
RAPID CITY     CLEAR     24  19  81 S5        30.16F WCI  18
$$

  *****  SOME WEATHER IN NEARBY STATES *****

CITY           SKY/WX    TMP DP  RH WIND       PRES   REMARKS
GLASGOW MT     CLEAR     24  21  88 SE10      29.95F WCI  14
GREAT FALLS MT CLOUDY    31  23  72 SW20      29.91F WCI  19
CHEYENNE WY    CLOUDY    24  22  91 S8        30.11F WCI  15
SCOTTSBLUFF NE NOT AVBL
OMAHA NE       MOCLDY    31  25  78 CALM      30.34S
DES MOINES IA  CLOUDY    37  32  82 NE3       30.34S
DAVENPORT IA   CLOUDY    33  26  75 NW6       30.35R
CHICAGO IL     CLOUDY    35  24  64 NW8       30.31R
EAU CLAIRE WI  CLOUDY    32  22  66 W5        30.28S
LA CROSSE WI   CLOUDY    34  22  61 W8        30.31S
$$

  *****  SOME NATIONAL WEATHER *****

CITY           SKY/WX    TMP DP  RH WIND       PRES   REMARKS
LA GUARDIA NY  CLOUDY    46  29  51 W17G25    29.91R
RALEIGH NC     PTCLDY    41  31  67 CALM      30.18S
ATLANTA GA     MOCLDY    46  33  60 W5        30.27R
NEW ORLEANS LA LGT RAIN  61  47  59 E12       30.19S
OKLAHOMA CITY  LGT RAIN  46  44  93 N7        30.25R
ALBUQUERQUE NM CLOUDY    36  23  59 E29       30.04R
SALT LAKE CITY CLEAR     28  23  81 SW5       30.28F WCI  23
LOS ANGELES CA CLEAR     60   8  12 SE6       30.06R
BOISE ID       CLOUDY    32  25  75 SE8       30.30S WCI  25
SEATTLE WA     CLOUDY    47  44  90 S16G23    30.12R
$$

*** WEATHER ACROSS MANITOBA...SASKATCHEWAN AND ONTARIO ***
                ***ONTARIO***

CITY           SKY/WX    TMP DP  RH WIND       PRES   REMARKS
GERALDTON      FLURRIES  23  21  93 NW7       30.17R WCI  15
THUNDER BAY    CLOUDY    28  25  86 W3        30.24
SIOUX LOOKOUT  FRZ DRZL  23  21  93 VRB2      30.21S FOG
TORONTO        MOCLDY    37  27  65 NW13      30.03R
BIG TROUT LK   CLOUDY    14  14 100 NW3       30.26R
PICKLE LAKE    NOT AVBL
DRYDEN         CLOUDY    21  21 100 W3        30.21S
KENORA         FLURRIES  16  14  93 VRB2      30.23R
$$
                *** MANITOBA***

CITY           SKY/WX    TMP DP  RH WIND       PRES   REMARKS
BRANDON        FLURRIES  27  23  86 S5        30.14F WCI  21
DAUPHIN        CLOUDY    28  25  86 S6        30.13F WCI  22
ISLAND LAKE    NOT AVBL
PILOT MOUND      N/A     25  23  93 S9          N/A  WCI  15
THE PAS        CLOUDY    27  27 100 SE9       30.07F WCI  17
THOMPSON       LGT SNOW  16  14  93 S3        30.15F
WINNIPEG       CLOUDY    27  23  86 S9        30.23S WCI  17
LYNN LAKE      CLOUDY    18  18 100 S8        30.03R FOG     WCI   7
CHURCHILL      CLEAR      0  -2  92 S7        30.17S WCI -13
GILLAM         LGT SNOW  10   7  85 S8        30.22F WCI  -1
$$
                ***SASKATCHEWAN***

CITY           SKY/WX    TMP DP  RH WIND       PRES   REMARKS
ESTEVAN        FLURRIES  28  27  93 S8        30.03F WCI  20
KINDERSLEY     CLOUDY    23  21  93 E10       29.74F WCI  12
LLOYDMINSTER   CLOUDY    21  21 100 SE16G23   29.76F FOG     WCI   7
PRINCE ALBERT  FLURRIES  27  23  86 SW5       29.94F WCI  21
REGINA         CLOUDY    27  25  93 SE13      29.96F WCI  16
YORKTON        CLOUDY    27  25  93 S6        30.02F WCI  20
N. BATTLEFORD  CLOUDY    25  25 100 SE13G20   29.84F WCI  13
LA RONGE       FRZ DRZL  27  21  80 S9        29.93F WCI  17
SASKATOON      CLOUDY    27  19  74 S16       29.90F WCI  14
SWIFT CURRENT  PTCLDY    25  21  86 S17       29.78F WCI  11
$$
NOTE: THESE ARE AUTOMATED STATIONS WITH LIMITED QUALITY CONTROL
      "FAIR" INDICATES FEW OR NO CLOUDS BELOW 12,000 FEET WITH NO
      SIGNIFICANT WEATHER AND/OR OBSTRUCTIONS TO VISIBILITY.
      SKY/WX - SKY CONDITION AND SIGNIFICANT WEATHER.
      TMP - AIR TEMPERATURE.    DP   - DEWPOINT TEMPERATURE.
      RH  - RELATIVE HUMIDITY.  PRES - PRESSURE.
      HX  - HEAT INDEX.         WCI  - WIND CHILL INDEX.
$




USA.gov is the U.S. government's official web portal to all federal, state and local government web resources and services.